Time,TemperatureF,DewpointF,PressureIn,WindDirection,WindDirectionDegrees,WindSpeedMPH,WindSpeedGustMPH,Humidity,HourlyPrecipIn,Conditions,Clouds,dailyrainin,SoftwareType,DateUTC
2013-03-14 00:03:00,21.0,17.2,29.93,NNW,337,9.9,-999.0,85,-99.99,,,0.00,Acu-Link.com,2013-03-14 04:03:00,
2013-03-14 00:18:00,21.0,15.8,29.94,NW,315,15.5,-999.0,80,-99.99,,,0.00,Acu-Link.com,2013-03-14 04:18:00,
2013-03-14 00:33:00,21.2,15.1,29.94,NW,315,13.0,-999.0,77,-99.99,,,0.00,Acu-Link.com,2013-03-14 04:33:00,
2013-03-14 00:48:00,21.4,14.1,29.95,NW,315,14.5,-999.0,73,-99.99,,,0.00,Acu-Link.com,2013-03-14 04:48:00,
2013-03-14 01:03:00,21.6,13.0,29.95,West,270,8.3,-999.0,69,-99.99,,,0.00,Acu-Link.com,2013-03-14 05:03:00,
2013-03-14 01:18:00,21.7,13.1,29.95,WNW,292,6.3,-999.0,69,-99.99,,,0.00,Acu-Link.com,2013-03-14 05:18:00,
2013-03-14 01:33:00,21.9,12.7,29.95,WNW,292,3.2,-999.0,67,-99.99,,,0.00,Acu-Link.com,2013-03-14 05:33:00,
2013-03-14 01:48:00,22.1,12.8,29.95,NW,315,6.3,-999.0,67,-99.99,,,0.00,Acu-Link.com,2013-03-14 05:48:00,
2013-03-14 02:03:00,22.3,13.4,29.95,North,0,8.9,-999.0,68,-99.99,,,0.00,Acu-Link.com,2013-03-14 06:03:00,
2013-03-14 02:18:00,22.3,13.4,29.96,West,270,8.9,-999.0,68,-99.99,,,0.00,Acu-Link.com,2013-03-14 06:18:00,
2013-03-14 02:33:00,22.1,13.5,29.95,WNW,292,6.8,-999.0,69,-99.99,,,0.00,Acu-Link.com,2013-03-14 06:33:00,
2013-03-14 02:49:00,22.1,13.2,29.96,West,270,8.3,-999.0,68,-99.99,,,0.00,Acu-Link.com,2013-03-14 06:49:00,
2013-03-14 03:04:00,22.1,13.5,29.96,WNW,292,8.3,-999.0,69,-99.99,,,0.00,Acu-Link.com,2013-03-14 07:04:00,
2013-03-14 03:19:00,22.1,13.8,29.96,West,270,3.7,-999.0,70,-99.99,,,0.00,Acu-Link.com,2013-03-14 07:19:00,
2013-03-14 03:35:00,22.1,13.8,29.96,WNW,292,8.3,-999.0,70,-99.99,,,0.00,Acu-Link.com,2013-03-14 07:35:00,
2013-03-14 03:50:00,22.3,14.3,29.96,NW,315,5.3,-999.0,71,-99.99,,,0.00,Acu-Link.com,2013-03-14 07:50:00,
2013-03-14 04:05:00,22.3,14.3,29.97,WNW,292,5.3,-999.0,71,-99.99,,,0.00,Acu-Link.com,2013-03-14 08:05:00,
2013-03-14 04:20:00,22.3,15.0,29.97,NW,315,7.3,-999.0,73,-99.99,,,0.00,Acu-Link.com,2013-03-14 08:20:00,
2013-03-14 04:35:00,21.9,16.7,29.97,NNW,337,3.2,-999.0,80,-99.99,,,0.00,Acu-Link.com,2013-03-14 08:35:00,
2013-03-14 04:50:00,21.4,17.6,29.97,NW,315,6.3,-999.0,85,-99.99,,,0.00,Acu-Link.com,2013-03-14 08:50:00,
2013-03-14 05:21:00,21.0,18.8,29.97,WNW,292,1.7,-999.0,91,-99.99,,,0.00,Acu-Link.com,2013-03-14 09:21:00,
2013-03-14 05:36:00,21.0,18.8,29.98,NNW,337,3.2,-999.0,91,-99.99,,,0.00,Acu-Link.com,2013-03-14 09:36:00,
2013-03-14 05:51:00,21.0,18.8,29.98,NW,315,2.2,-999.0,91,-99.99,,,0.00,Acu-Link.com,2013-03-14 09:51:00,
2013-03-14 06:07:00,21.0,18.8,29.98,WNW,292,2.2,-999.0,91,-99.99,,,0.00,Acu-Link.com,2013-03-14 10:07:00,
2013-03-14 06:22:00,21.6,17.8,29.99,WNW,292,3.7,-999.0,85,-99.99,,,0.00,Acu-Link.com,2013-03-14 10:22:00,
2013-03-14 06:38:00,23.0,14.4,29.99,WNW,292,8.3,-999.0,69,-99.99,,,0.00,Acu-Link.com,2013-03-14 10:38:00,
2013-03-14 06:53:00,23.2,13.6,29.99,NNW,337,11.4,-999.0,66,-99.99,,,0.00,Acu-Link.com,2013-03-14 10:53:00,
2013-03-14 07:08:00,23.2,14.2,30.00,WNW,292,4.7,-999.0,68,-99.99,,,0.00,Acu-Link.com,2013-03-14 11:08:00,
2013-03-14 07:23:00,22.8,15.2,30.00,WNW,292,8.3,-999.0,72,-99.99,,,0.00,Acu-Link.com,2013-03-14 11:23:00,
2013-03-14 07:38:00,22.6,15.6,30.00,WNW,292,3.7,-999.0,74,-99.99,,,0.00,Acu-Link.com,2013-03-14 11:38:00,
2013-03-14 07:53:00,22.3,15.3,30.01,West,270,4.7,-999.0,74,-99.99,,,0.00,Acu-Link.com,2013-03-14 11:53:00,
2013-03-14 08:08:00,22.1,15.4,30.02,West,270,8.9,-999.0,75,-99.99,,,0.00,Acu-Link.com,2013-03-14 12:08:00,
2013-03-14 08:23:00,22.1,15.4,30.02,WNW,292,6.3,-999.0,75,-99.99,,,0.00,Acu-Link.com,2013-03-14 12:23:00,
2013-03-14 08:39:00,21.7,14.7,30.02,SW,225,8.3,-999.0,74,-99.99,,,0.00,Acu-Link.com,2013-03-14 12:39:00,
2013-03-14 08:54:00,23.4,15.1,30.03,West,270,8.9,-999.0,70,-99.99,,,0.00,Acu-Link.com,2013-03-14 12:54:00,
2013-03-14 09:09:00,23.9,15.2,30.03,WNW,292,4.7,-999.0,69,-99.99,,,0.00,Acu-Link.com,2013-03-14 13:09:00,
2013-03-14 09:24:00,25.3,15.2,30.03,WSW,247,7.3,-999.0,65,-99.99,,,0.00,Acu-Link.com,2013-03-14 13:24:00,
2013-03-14 09:40:00,25.3,15.2,30.02,WNW,292,7.3,-999.0,65,-99.99,,,0.00,Acu-Link.com,2013-03-14 13:40:00,
2013-03-14 09:55:00,25.7,14.9,30.02,NW,315,7.8,-999.0,63,-99.99,,,0.00,Acu-Link.com,2013-03-14 13:55:00,
2013-03-14 10:10:00,26.8,15.6,30.03,NW,315,10.9,-999.0,62,-99.99,,,0.00,Acu-Link.com,2013-03-14 14:10:00,
2013-03-14 10:25:00,26.6,12.6,30.02,West,270,16.1,-999.0,55,-99.99,,,0.00,Acu-Link.com,2013-03-14 14:25:00,
2013-03-14 10:40:00,27.7,14.1,30.02,West,270,6.3,-999.0,56,-99.99,,,0.00,Acu-Link.com,2013-03-14 14:40:00,
2013-03-14 10:56:00,27.7,13.7,30.02,WNW,292,7.8,-999.0,55,-99.99,,,0.00,Acu-Link.com,2013-03-14 14:56:00,
2013-03-14 11:11:00,28.9,13.5,30.02,NW,315,4.2,-999.0,52,-99.99,,,0.00,Acu-Link.com,2013-03-14 15:11:00,
2013-03-14 11:27:00,29.3,11.1,30.03,NW,315,15.5,-999.0,46,-99.99,,,0.00,Acu-Link.com,2013-03-14 15:27:00,
2013-03-14 11:42:00,29.8,10.6,30.02,West,270,10.4,-999.0,44,-99.99,,,0.00,Acu-Link.com,2013-03-14 15:42:00,
2013-03-14 11:57:00,29.3,9.6,30.02,WNW,292,8.3,-999.0,43,-99.99,,,0.00,Acu-Link.com,2013-03-14 15:57:00,
2013-03-14 12:12:00,30.6,10.3,30.03,NW,315,5.8,-999.0,42,-99.99,,,0.00,Acu-Link.com,2013-03-14 16:12:00,
2013-03-14 12:27:00,32.0,9.3,30.02,West,270,11.4,-999.0,38,-99.99,,,0.00,Acu-Link.com,2013-03-14 16:27:00,
2013-03-14 12:42:00,31.1,7.3,30.02,West,270,9.9,-999.0,36,-99.99,,,0.00,Acu-Link.com,2013-03-14 16:42:00,
2013-03-14 12:57:00,32.0,6.8,30.02,SW,225,8.3,-999.0,34,-99.99,,,0.00,Acu-Link.com,2013-03-14 16:57:00,
2013-03-14 13:12:00,33.3,6.7,30.02,West,270,10.4,-999.0,32,-99.99,,,0.00,Acu-Link.com,2013-03-14 17:12:00,
2013-03-14 13:28:00,33.1,5.1,30.02,WNW,292,6.3,-999.0,30,-99.99,,,0.00,Acu-Link.com,2013-03-14 17:28:00,
2013-03-14 13:43:00,34.0,5.9,30.02,West,270,17.6,-999.0,30,-99.99,,,0.00,Acu-Link.com,2013-03-14 17:43:00,
2013-03-14 13:58:00,33.3,5.3,30.02,WNW,292,9.9,-999.0,30,-99.99,,,0.00,Acu-Link.com,2013-03-14 17:58:00,
2013-03-14 14:13:00,33.3,4.5,30.01,NNW,337,13.5,-999.0,29,-99.99,,,0.00,Acu-Link.com,2013-03-14 18:13:00,
2013-03-14 14:28:00,33.3,5.3,30.01,WNW,292,11.4,-999.0,30,-99.99,,,0.00,Acu-Link.com,2013-03-14 18:28:00,
2013-03-14 14:43:00,34.3,6.8,30.01,NW,315,11.9,-999.0,31,-99.99,,,0.00,Acu-Link.com,2013-03-14 18:43:00,
2013-03-14 14:59:00,33.6,6.2,30.01,WNW,292,13.0,-999.0,31,-99.99,,,0.00,Acu-Link.com,2013-03-14 18:59:00,
2013-03-14 15:14:00,33.6,6.9,30.01,NW,315,9.4,-999.0,32,-99.99,,,0.00,Acu-Link.com,2013-03-14 19:14:00,
2013-03-14 15:29:00,34.0,7.3,30.00,NW,315,16.6,-999.0,32,-99.99,,,0.00,Acu-Link.com,2013-03-14 19:29:00,
2013-03-14 15:44:00,35.1,10.9,30.00,West,270,7.3,-999.0,36,-99.99,,,0.00,Acu-Link.com,2013-03-14 19:44:00,
2013-03-14 15:59:00,35.4,12.3,29.99,NNW,337,10.4,-999.0,38,-99.99,,,0.00,Acu-Link.com,2013-03-14 19:59:00,
2013-03-14 16:14:00,35.4,12.9,29.99,WNW,292,7.8,-999.0,39,-99.99,,,0.00,Acu-Link.com,2013-03-14 20:14:00,
2013-03-14 16:29:00,34.0,12.2,29.99,NNW,337,6.3,-999.0,40,-99.99,,,0.00,Acu-Link.com,2013-03-14 20:29:00,
2013-03-14 16:44:00,34.7,12.3,29.99,West,270,6.8,-999.0,39,-99.99,,,0.00,Acu-Link.com,2013-03-14 20:44:00,
2013-03-14 17:00:00,34.0,13.3,29.98,WSW,247,6.3,-999.0,42,-99.99,,,0.00,Acu-Link.com,2013-03-14 21:00:00,
2013-03-14 17:15:00,34.2,13.5,29.98,SW,225,4.2,-999.0,42,-99.99,,,0.00,Acu-Link.com,2013-03-14 21:15:00,
2013-03-14 17:30:00,34.2,14.1,29.99,WNW,292,10.9,-999.0,43,-99.99,,,0.00,Acu-Link.com,2013-03-14 21:30:00,
2013-03-14 17:45:00,33.8,13.2,29.99,WNW,292,7.8,-999.0,42,-99.99,,,0.00,Acu-Link.com,2013-03-14 21:45:00,
2013-03-14 18:00:00,33.3,13.2,29.99,WNW,292,13.5,-999.0,43,-99.99,,,0.00,Acu-Link.com,2013-03-14 22:00:00,
2013-03-14 18:16:00,33.3,13.2,29.99,NW,315,6.8,-999.0,43,-99.99,,,0.00,Acu-Link.com,2013-03-14 22:16:00,
2013-03-14 18:31:00,34.0,13.3,29.99,WSW,247,8.3,-999.0,42,-99.99,,,0.00,Acu-Link.com,2013-03-14 22:31:00,
2013-03-14 18:46:00,32.0,12.6,29.99,West,270,5.8,-999.0,44,-99.99,,,0.00,Acu-Link.com,2013-03-14 22:46:00,
2013-03-14 19:01:00,30.7,12.9,30.00,West,270,4.7,-999.0,47,-99.99,,,0.00,Acu-Link.com,2013-03-14 23:01:00,
2013-03-14 19:47:00,29.5,14.5,30.00,NW,315,8.3,-999.0,53,-99.99,,,0.00,Acu-Link.com,2013-03-14 23:47:00,
2013-03-14 20:02:00,29.1,15.4,30.00,NW,315,4.7,-999.0,56,-99.99,,,0.00,Acu-Link.com,2013-03-15 00:02:00,
2013-03-14 20:17:00,28.8,14.3,30.01,WNW,292,9.9,-999.0,54,-99.99,,,0.00,Acu-Link.com,2013-03-15 00:17:00,
2013-03-14 20:32:00,28.6,14.1,30.01,NW,315,6.3,-999.0,54,-99.99,,,0.00,Acu-Link.com,2013-03-15 00:32:00,
2013-03-14 20:47:00,28.4,14.3,30.01,NNW,337,5.3,-999.0,55,-99.99,,,0.00,Acu-Link.com,2013-03-15 00:47:00,
2013-03-14 21:02:00,28.0,15.2,30.00,WNW,292,3.2,-999.0,58,-99.99,,,0.00,Acu-Link.com,2013-03-15 01:02:00,
2013-03-14 21:17:00,27.9,15.1,30.00,WNW,292,6.3,-999.0,58,-99.99,,,0.00,Acu-Link.com,2013-03-15 01:17:00,
2013-03-14 21:32:00,27.9,15.1,30.01,NW,315,10.4,-999.0,58,-99.99,,,0.00,Acu-Link.com,2013-03-15 01:32:00,
2013-03-14 21:48:00,27.5,14.7,30.01,WNW,292,7.8,-999.0,58,-99.99,,,0.00,Acu-Link.com,2013-03-15 01:48:00,
2013-03-14 22:03:00,27.1,14.3,30.01,WNW,292,3.7,-999.0,58,-99.99,,,0.00,Acu-Link.com,2013-03-15 02:03:00,
2013-03-14 22:18:00,27.0,14.6,30.01,WSW,247,7.3,-999.0,59,-99.99,,,0.00,Acu-Link.com,2013-03-15 02:18:00,
2013-03-14 22:33:00,26.6,15.4,30.01,WNW,292,2.7,-999.0,62,-99.99,,,0.00,Acu-Link.com,2013-03-15 02:33:00,
2013-03-14 22:48:00,26.6,15.7,30.01,NW,315,7.3,-999.0,63,-99.99,,,0.00,Acu-Link.com,2013-03-15 02:48:00,
2013-03-14 23:03:00,26.6,16.1,30.00,WNW,292,2.7,-999.0,64,-99.99,,,0.00,Acu-Link.com,2013-03-15 03:03:00,
2013-03-14 23:19:00,26.4,15.9,29.99,West,270,3.2,-999.0,64,-99.99,,,0.00,Acu-Link.com,2013-03-15 03:19:00,
2013-03-14 23:34:00,26.6,16.4,29.99,WSW,247,2.7,-999.0,65,-99.99,,,0.00,Acu-Link.com,2013-03-15 03:34:00,
2013-03-14 23:49:00,26.4,17.0,29.99,WSW,247,2.7,-999.0,67,-99.99,,,0.00,Acu-Link.com,2013-03-15 03:49:00,